Flag for U.S.A. Weather past 2 weeks in Burbank, California, U.S.A.

Now
72 °F

Clear.


Feels Like: 76 °F
Forecast: 69 / 92 °F
Wind: No wind

Location: Burbank-Glendale-Pasadena Airport

Current Time: Jul 30, 2014 at 5:10:50 AM

Latest Report: Jul 30, 2014 at 3:53 AM


Visibility: 10 mi

Pressure: 29.90 "Hg

Humidity: 61%

Dew point: 58 °F

Location of BurbankLocation

Historic Weather in Burbank — Graph

°F

Burbank temperature yesterday

Maximum temperature yesterday: 91 °F (at 3:53 PM)
Minimum temperature yesterday: 71 °F (at 4:53 AM)
Average temperature yesterday: 79 °F

Past Weeks' High & Low Weather Summary

 TemperatureHumidityPressure
High97 °F (Jul 24, 3:53 PM)87% (Jul 19, 5:53 AM)30.03 "Hg (Jul 19, 5:53 AM)
Low62 °F (Jul 18, 4:53 AM)15% (Jul 27, 3:53 PM)29.70 "Hg (Jul 24, 6:53 PM)
Average75 °F57%29.93 "Hg
* Reported Jul 15 3:53 AM — Jul 30 3:53 AM, Burbank, Weather by CustomWeather, © 2014

Note: Actual official high and low records may vary slightly from our data, if they occured in-between our weather recording intervals... More about our weather records

Advertising

Burbank weather history for previous 24 hours

 ConditionsComfort  
Time TempWeatherWind HumidityBarometerVisibility
3:53 AM
Jul 30
72 °FClear.No wind61%29.90 "Hg10 mi
2:53 AM72 °FClear.No wind61%29.91 "Hg10 mi
1:53 AM72 °FClear.5 mph61%29.92 "Hg10 mi
12:53 AM72 °FClear.5 mph61%29.92 "Hg10 mi
11:53 PM
Jul 29
73 °FClear.12 mph59%29.93 "Hg10 mi
10:53 PM74 °FClear.8 mph57%29.92 "Hg10 mi
9:53 PM76 °FClear.6 mph52%29.93 "Hg10 mi
8:53 PM78 °FSunny.5 mph46%29.93 "Hg10 mi
7:53 PM81 °FSunny.6 mph37%29.91 "Hg10 mi
6:53 PM82 °FSunny.3 mph37%29.90 "Hg10 mi
5:53 PM84 °FSunny.10 mph35%29.90 "Hg10 mi
4:53 PM90 °FSunny.12 mph25%29.88 "Hg10 mi
3:53 PM91 °FSunny.7 mph26%29.90 "Hg10 mi
2:53 PM90 °FSunny.8 mph31%29.91 "Hg10 mi
1:53 PM90 °FSunny.10 mph29%29.93 "Hg10 mi
12:53 PM89 °FSunny.12 mph31%29.96 "Hg10 mi
11:53 AM86 °FSunny.6 mph27%29.97 "Hg10 mi
10:53 AM84 °FSunny.3 mph30%29.99 "Hg10 mi
9:53 AM82 °FSunny.5 mph25%30.00 "Hg10 mi
8:53 AM78 °FSunny.No wind35%30.01 "Hg10 mi
7:53 AM73 °FSunny.No wind44%30.01 "Hg10 mi
6:53 AM71 °FClear.No wind45%30.00 "Hg10 mi
5:53 AM71 °FClear.3 mph49%29.98 "Hg10 mi
Weather by CustomWeather, © 2014

See weather overviewHow to use our weather pages